Date String (YYYY-MM-DD hh:mm:ss) UTC,Instrument flags,Ambient pressure (hPa),Sample flow (lpm),Bypass flow (lpm),Sample temperature (°C),Ambient temperature (°C),ASC tube jacket temperature (°C),LED temperature (°C),Box temperature (°C),Sample RH (%),Span deviation,Mass concentration (μg/m³),Mass concentration (μg/m³),Mass concentration (μg/m³)
DateTimeUTC,F1_M11,P_M11,Q1_M11,Q2_M11,T1_M11,T2_M11,T3_M11,T4_M11,T5_M11,U1_M11,ZSPAN_M11,X0_M11,X2_M11,X1_M11
2021-10-07 20:00:00,,0827.0,5.01,0.00,29.7,29.0,00.0,38.6,31.7,14.3,0000.0,0006.25,0003.10,0002.70
2021-10-07 20:01:00,,0826.9,5.00,0.00,29.8,29.1,00.0,38.6,31.7,14.4,0000.0,0006.21,0003.09,0002.70
2021-10-07 20:02:00,,0826.9,5.01,0.00,29.8,28.7,00.0,38.6,31.7,14.3,0000.0,0006.14,0003.07,0002.70
2021-10-07 20:03:00,,0826.9,4.99,0.00,29.7,26.7,00.0,38.6,31.1,14.2,0000.0,0006.23,0003.07,0002.71
2021-10-07 20:04:00,,0827.0,5.00,0.00,29.5,25.8,00.0,38.6,30.8,14.4,0000.0,0005.01,0003.08,0002.71
2021-10-07 20:05:00,,0827.1,5.00,0.00,29.5,26.2,00.0,38.6,30.9,14.5,0000.0,0004.85,0003.10,0002.69
2021-10-07 20:06:00,,0827.1,5.00,0.00,29.4,26.6,00.0,38.5,31.0,14.6,0000.0,0004.88,0003.08,0002.69
2021-10-07 20:07:00,,0826.9,5.00,0.00,29.4,27.1,00.0,38.5,31.1,14.6,0000.0,0004.86,0003.10,0002.69
2021-10-07 20:08:00,,0826.8,4.99,0.00,29.4,27.5,00.0,38.5,31.2,14.7,0000.0,0004.90,0003.12,0002.70
2021-10-07 20:09:00,,0826.9,5.00,0.00,29.5,27.9,00.0,38.5,31.3,14.8,0000.0,0005.06,0003.16,0002.70
2021-10-07 20:10:00,,0826.7,5.00,0.00,29.5,28.2,00.0,38.5,31.4,14.6,0000.0,0005.07,0003.16,0002.69
2021-10-07 20:11:00,,0826.8,5.01,0.00,29.6,28.4,00.0,38.5,31.4,14.5,0000.0,0004.92,0003.15,0002.70
2021-10-07 20:12:00,,0826.8,5.00,0.00,29.6,28.6,00.0,38.5,31.5,14.5,0000.0,0005.03,0003.17,0002.72
2021-10-07 20:13:00,,0826.8,5.00,0.00,29.7,28.8,00.0,38.6,31.6,14.5,0000.0,0006.05,0003.19,0002.74
2021-10-07 20:14:00,,0826.9,4.99,0.00,29.7,29.0,00.0,38.6,31.7,14.4,0000.0,0006.21,0003.21,0002.76
2021-10-07 20:15:00,,0826.7,5.01,0.00,29.8,28.3,00.0,38.6,31.5,14.4,0000.0,0006.22,0003.21,0002.76
2021-10-07 20:16:00,,0826.7,4.99,0.00,29.6,26.2,00.0,38.6,30.9,14.4,0000.0,0006.10,0003.21,0002.77
2021-10-07 20:17:00,,0826.7,5.01,0.00,29.4,25.7,00.0,38.6,30.7,14.6,0000.0,0006.17,0003.22,0002.76
2021-10-07 20:18:00,,0826.7,4.99,0.00,29.4,26.1,00.0,38.5,30.8,14.8,0000.0,0007.20,0003.23,0002.75
2021-10-07 20:19:00,,0826.7,5.01,0.00,29.3,26.6,00.0,38.5,30.9,14.9,0000.0,0007.60,0003.24,0002.73
2021-10-07 20:20:00,,0826.7,4.99,0.00,29.3,27.1,00.0,38.5,31.0,14.7,0000.0,0007.66,0003.25,0002.73
2021-10-07 20:21:00,,0826.7,5.01,0.00,29.4,27.5,00.0,38.5,31.1,14.5,0000.0,0007.70,0003.27,0002.75
2021-10-07 20:22:00,,0826.7,5.01,0.00,29.4,27.8,00.0,38.5,31.2,14.6,0000.0,0007.77,0003.28,0002.74
2021-10-07 20:23:00,,0826.7,5.00,0.00,29.5,28.1,00.0,38.5,31.3,14.6,0000.0,0007.73,0003.26,0002.72
2021-10-07 20:24:00,,0826.6,5.00,0.00,29.5,28.4,00.0,38.5,31.4,14.5,0000.0,0007.28,0003.25,0002.70
2021-10-07 20:25:00,,0826.6,5.00,0.00,29.6,28.6,00.0,38.5,31.5,14.6,0000.0,0007.20,0003.24,0002.68
2021-10-07 20:26:00,,0826.5,5.00,0.00,29.6,28.8,00.0,38.5,31.6,14.4,0000.0,0007.02,0003.22,0002.67
2021-10-07 20:27:00,,0826.6,4.99,0.00,29.7,28.9,00.0,38.6,31.6,14.4,0000.0,0006.77,0003.20,0002.66
2021-10-07 20:28:00,,0826.6,5.00,0.00,29.7,29.1,00.0,38.6,31.7,14.3,0000.0,0006.67,0003.18,0002.65
2021-10-07 20:29:00,,0826.7,5.00,0.00,29.8,29.2,00.0,38.6,31.8,14.2,0000.0,0005.93,0003.16,0002.63
2021-10-07 20:30:00,,0826.6,5.01,0.00,29.9,29.1,00.0,38.7,31.8,14.2,0000.0,0005.78,0003.18,0002.65
2021-10-07 20:31:00,,0826.6,5.01,0.00,29.8,27.3,00.0,38.7,31.3,14.2,0000.0,0006.05,0003.18,0002.66
2021-10-07 20:32:00,,0826.6,5.00,0.00,29.6,25.8,00.0,38.6,30.8,14.2,0000.0,0006.28,0003.17,0002.65
2021-10-07 20:33:00,,0826.6,5.00,0.00,29.5,26.0,00.0,38.6,30.9,14.3,0000.0,0006.27,0003.17,0002.64
2021-10-07 20:34:00,,0826.5,5.00,0.00,29.5,26.5,00.0,38.6,31.0,14.7,0000.0,0007.43,0003.19,0002.63
2021-10-07 20:35:00,,0826.5,5.00,0.00,29.4,27.0,00.0,38.6,31.1,14.4,0000.0,0008.07,0003.19,0002.62
2021-10-07 20:36:00,,0826.5,4.99,0.00,29.5,27.5,00.0,38.5,31.2,14.4,0000.0,0008.11,0003.19,0002.62
2021-10-07 20:37:00,,0826.5,5.01,0.00,29.5,27.8,00.0,38.5,31.3,14.4,0000.0,0008.22,0003.21,0002.63
2021-10-07 20:38:00,,0826.5,5.01,0.00,29.5,28.2,00.0,38.5,31.4,14.5,0000.0,0008.33,0003.25,0002.64
2021-10-07 20:39:00,,0826.5,5.00,0.00,29.6,28.4,00.0,38.6,31.5,14.4,0000.0,0008.33,0003.26,0002.65
2021-10-07 20:40:00,,0826.5,4.99,0.00,29.7,28.6,00.0,38.6,31.6,14.4,0000.0,0008.42,0003.27,0002.67
2021-10-07 20:41:00,,0826.5,5.01,0.00,29.7,28.8,00.0,38.6,31.6,14.4,0000.0,0008.15,0003.23,0002.65
2021-10-07 20:42:00,,0826.6,4.99,0.00,29.8,29.0,00.0,38.6,31.7,14.3,0000.0,0007.82,0003.20,0002.63
2021-10-07 20:43:00,,0826.5,5.01,0.00,29.8,27.7,00.0,38.6,31.3,14.3,0000.0,0007.65,0003.18,0002.64
2021-10-07 20:44:00,,0826.5,5.00,0.00,29.6,25.9,00.0,38.6,30.9,14.6,0000.0,0007.93,0003.21,0002.65
2021-10-07 20:45:00,,0826.5,5.00,0.00,29.5,25.9,00.0,38.6,30.8,14.4,0000.0,0007.61,0003.21,0002.65
2021-10-07 20:46:00,,0826.5,5.00,0.00,29.4,26.3,00.0,38.6,30.9,14.5,0000.0,0006.44,0003.20,0002.65
2021-10-07 20:47:00,,0826.5,5.01,0.00,29.4,26.8,00.0,38.5,31.0,14.7,0000.0,0006.15,0003.21,0002.64
2021-10-07 20:48:00,,0826.5,5.01,0.00,29.4,27.3,00.0,38.5,31.1,14.6,0000.0,0006.53,0003.20,0002.63
2021-10-07 20:49:00,,0826.6,5.01,0.00,29.4,27.7,00.0,38.5,31.2,14.6,0000.0,0006.51,0003.17,0002.62
2021-10-07 20:50:00,,0826.6,5.00,0.00,29.5,28.0,00.0,38.5,31.3,14.6,0000.0,0006.58,0003.16,0002.62
2021-10-07 20:51:00,,0826.6,5.00,0.00,29.5,28.3,00.0,38.5,31.4,14.4,0000.0,0006.41,0003.16,0002.62
2021-10-07 20:52:00,,0826.6,5.00,0.00,29.6,28.5,00.0,38.5,31.5,14.6,0000.0,0007.29,0003.16,0002.62
2021-10-07 20:53:00,,0826.7,4.99,0.00,29.6,28.7,00.0,38.5,31.5,14.5,0000.0,0007.76,0003.21,0002.62
2021-10-07 20:54:00,,0826.6,5.00,0.00,29.7,28.9,00.0,38.6,31.6,14.5,0000.0,0007.77,0003.24,0002.62
2021-10-07 20:55:00,,0826.6,5.00,0.00,29.7,29.0,00.0,38.6,31.7,14.5,0000.0,0007.33,0003.20,0002.61
2021-10-07 20:56:00,,0826.5,5.01,0.00,29.8,28.4,00.0,38.6,31.6,14.4,0000.0,0007.02,0003.21,0002.61
2021-10-07 20:57:00,,0826.5,4.99,0.00,29.6,26.4,00.0,38.6,31.0,14.6,0000.0,0007.22,0003.25,0002.63
2021-10-07 20:58:00,,0826.5,5.01,0.00,29.5,25.7,00.0,38.6,30.8,14.7,0000.0,0007.32,0003.26,0002.64
2021-10-07 20:59:00,,0826.5,5.00,0.00,29.4,26.1,00.0,38.6,30.9,14.7,0000.0,0006.89,0003.28,0002.65
